• In Norway
  • List of Countries
  • For 7 days
  • Water Temperature
  • Satellite Maps
  • Weather Map
  • Weather Widgets
  • user-avatar
    Login

    Hourly Weather Wierzchecino

    Today, 18 June, Monday

    Time Temperature Precipitation Wind Pressure Humidity
    00:00 +15°C° 0 mm 1 mps 759 mmHg 87%
    01:00 +15°C° 0 mm 1 mps 760 mmHg 87%
    02:00 +15°C° 0 mm 1 mps 760 mmHg 87%
    03:00 +15°C° 0 mm 1 mps 760 mmHg 87%
    04:00 +15°C° 0 mm 1 mps 760 mmHg 87%
    05:00 +16°C° 0 mm 1 mps 760 mmHg 82%
    06:00 +18°C° 0 mm 1 mps 761 mmHg 78%
    07:00 +19°C° 0 mm 1 mps 761 mmHg 74%
    08:00 +20°C° 0.1 mm 1 mps 761 mmHg 72%
    09:00 +19°C° 0.1 mm 2 mps 761 mmHg 71%
    10:00 +20°C° 0.1 mm 2 mps 761 mmHg 69%
    11:00 +20°C° 0.1 mm 2 mps 761 mmHg 67%
    12:00 +21°C° 0.1 mm 2 mps 761 mmHg 65%
    13:00 +21°C° 0.1 mm 2 mps 761 mmHg 63%
    14:00 +21°C° 0 mm 2 mps 761 mmHg 62%
    15:00 +23°C° 0 mm 2 mps 760 mmHg 60%
    16:00 +23°C° 0 mm 2 mps 760 mmHg 59%
    17:00 +23°C° 0 mm 2 mps 760 mmHg 62%
    18:00 +21°C° 0 mm 2 mps 760 mmHg 66%
    19:00 +22°C° 0 mm 1 mps 760 mmHg 69%
    20:00 +19°C° 0 mm 2 mps 760 mmHg 73%
    21:00 +18°C° 0 mm 2 mps 761 mmHg 78%
    22:00 +17°C° 0 mm 2 mps 761 mmHg 83%
    23:00 +16°C° 0 mm 2 mps 761 mmHg 86%

    Tomorrow, 19 June, Tuesday

    Time Temperature Precipitation Wind Pressure Humidity
    00:00 +16°C° 0 mm 2 mps 761 mmHg 89%
    01:00 +14°C° 0 mm 3 mps 761 mmHg 92%
    02:00 +14°C° 0 mm 3 mps 761 mmHg 92%
    03:00 +16°C° 0 mm 3 mps 761 mmHg 91%
    04:00 +16°C° 0 mm 3 mps 760 mmHg 91%
    05:00 +17°C° 0.1 mm 4 mps 761 mmHg 88%
    06:00 +17°C° 0.1 mm 4 mps 761 mmHg 86%
    07:00 +17°C° 0.1 mm 5 mps 761 mmHg 83%
    08:00 +19°C° 0 mm 5 mps 761 mmHg 76%
    09:00 +20°C° 0 mm 5 mps 761 mmHg 70%
    10:00 +21°C° 0 mm 6 mps 761 mmHg 63%
    11:00 +22°C° 0 mm 5 mps 761 mmHg 61%
    12:00 +23°C° 0 mm 5 mps 761 mmHg 59%
    13:00 +25°C° 0 mm 5 mps 761 mmHg 57%
    14:00 +23°C° 0.1 mm 5 mps 761 mmHg 63%
    15:00 +22°C° 0.1 mm 5 mps 761 mmHg 69%
    16:00 +22°C° 0.1 mm 5 mps 761 mmHg 75%
    17:00 +21°C° 0.1 mm 4 mps 761 mmHg 77%
    18:00 +20°C° 0.1 mm 4 mps 762 mmHg 80%
    19:00 +20°C° 0.1 mm 4 mps 762 mmHg 82%
    20:00 +19°C° 0 mm 3 mps 762 mmHg 84%
    21:00 +18°C° 0 mm 3 mps 763 mmHg 85%
    22:00 +16°C° 0 mm 3 mps 763 mmHg 87%
    23:00 +16°C° 0 mm 3 mps 763 mmHg 87%

    Day after tomorrow, 20 June, Wednesday

    Time Temperature Precipitation Wind Pressure Humidity
    00:00 +14°C° 0 mm 3 mps 764 mmHg 87%
    01:00 +13°C° 0 mm 3 mps 764 mmHg 87%
    02:00 +12°C° 0 mm 3 mps 764 mmHg 87%
    03:00 +13°C° 0 mm 2 mps 764 mmHg 88%
    04:00 +12°C° 0 mm 2 mps 764 mmHg 88%
    05:00 +14°C° 0 mm 2 mps 764 mmHg 82%
    06:00 +15°C° 0 mm 2 mps 765 mmHg 77%
    07:00 +16°C° 0 mm 2 mps 765 mmHg 71%
    08:00 +18°C° 0 mm 2 mps 765 mmHg 64%
    09:00 +19°C° 0 mm 2 mps 765 mmHg 58%
    10:00 +20°C° 0 mm 3 mps 765 mmHg 51%
    11:00 +21°C° 0 mm 3 mps 764 mmHg 50%
    12:00 +22°C° 0 mm 3 mps 764 mmHg 49%
    13:00 +25°C° 0 mm 2 mps 764 mmHg 48%
    14:00 +25°C° 0 mm 2 mps 763 mmHg 49%
    15:00 +25°C° 0 mm 2 mps 763 mmHg 50%
    16:00 +26°C° 0 mm 2 mps 763 mmHg 51%
    17:00 +25°C° 0 mm 1 mps 762 mmHg 55%
    18:00 +25°C° 0 mm 1 mps 762 mmHg 60%
    19:00 +22°C° 0 mm 0 mps 762 mmHg 64%
    20:00 +23°C° 0 mm 1 mps 762 mmHg 67%
    21:00 +20°C° 0 mm 2 mps 761 mmHg 69%
    22:00 +19°C° 0 mm 2 mps 761 mmHg 71%
    23:00 +18°C° 0 mm 3 mps 761 mmHg 72%

    21 June, Thursday

    Time Temperature Precipitation Wind Pressure Humidity
    00:00 +18°C° 0 mm 3 mps 761 mmHg 73%
    01:00 +18°C° 0 mm 3 mps 760 mmHg 74%
    02:00 +17°C° 0 mm 3 mps 760 mmHg 76%
    03:00 +17°C° 0 mm 3 mps 759 mmHg 78%
    04:00 +17°C° 0 mm 3 mps 759 mmHg 80%
    05:00 +19°C° 0 mm 4 mps 758 mmHg 78%
    06:00 +20°C° 0 mm 4 mps 758 mmHg 76%
    07:00 +22°C° 0 mm 4 mps 757 mmHg 74%
    08:00 +23°C° 0.3 mm 4 mps 757 mmHg 70%
    09:00 +25°C° 0.3 mm 4 mps 756 mmHg 66%
    10:00 +27°C° 0.3 mm 4 mps 755 mmHg 63%
    11:00 +27°C° 0.4 mm 4 mps 755 mmHg 62%
    12:00 +27°C° 0.4 mm 5 mps 754 mmHg 61%
    13:00 +28°C° 0.4 mm 5 mps 753 mmHg 60%
    14:00 +26°C° 0.9 mm 5 mps 753 mmHg 66%
    15:00 +25°C° 0.9 mm 5 mps 753 mmHg 72%
    16:00 +23°C° 0.9 mm 6 mps 752 mmHg 78%
    17:00 +21°C° 0.3 mm 6 mps 752 mmHg 79%
    18:00 +19°C° 0.3 mm 6 mps 753 mmHg 80%
    19:00 +16°C° 0.3 mm 6 mps 753 mmHg 82%
    20:00 +15°C° 0 mm 6 mps 753 mmHg 81%
    21:00 +14°C° 0 mm 6 mps 753 mmHg 80%
    22:00 +12°C° 0 mm 7 mps 754 mmHg 79%
    23:00 +11°C° 0 mm 7 mps 754 mmHg 79%

    22 June, Friday

    Time Temperature Precipitation Wind Pressure Humidity
    00:00 +10°C° 0 mm 7 mps 754 mmHg 78%
    01:00 +10°C° 0 mm 7 mps 754 mmHg 77%
    02:00 +10°C° 0 mm 7 mps 754 mmHg 76%
    03:00 +10°C° 0 mm 7 mps 754 mmHg 75%
    04:00 +9°C° 0 mm 7 mps 754 mmHg 74%
    05:00 +10°C° 0 mm 8 mps 754 mmHg 70%
    06:00 +11°C° 0 mm 9 mps 754 mmHg 66%
    07:00 +11°C° 0 mm 9 mps 755 mmHg 62%
    08:00 +12°C° 0.1 mm 9 mps 755 mmHg 61%
    09:00 +12°C° 0.1 mm 9 mps 755 mmHg 60%
    10:00 +13°C° 0.1 mm 9 mps 755 mmHg 59%
    11:00 +13°C° 0.4 mm 9 mps 755 mmHg 61%
    12:00 +13°C° 0.4 mm 9 mps 755 mmHg 63%
    13:00 +15°C° 0.4 mm 9 mps 755 mmHg 65%
    14:00 +15°C° 0.5 mm 9 mps 755 mmHg 66%
    15:00 +15°C° 0.5 mm 8 mps 755 mmHg 67%
    16:00 +15°C° 0.5 mm 8 mps 755 mmHg 67%
    17:00 +15°C° 0.1 mm 7 mps 755 mmHg 68%
    18:00 +14°C° 0.1 mm 7 mps 755 mmHg 69%
    19:00 +14°C° 0.1 mm 6 mps 755 mmHg 70%
    20:00 +13°C° 0.1 mm 6 mps 755 mmHg 73%
    21:00 +11°C° 0.1 mm 6 mps 755 mmHg 76%
    22:00 +11°C° 0.1 mm 6 mps 755 mmHg 79%
    23:00 +10°C° 0.1 mm 7 mps 755 mmHg 81%

    23 June, Saturday

    Time Temperature Precipitation Wind Pressure Humidity
    00:00 +10°C° 0.1 mm 7 mps 755 mmHg 82%
    01:00 +10°C° 0.1 mm 7 mps 755 mmHg 84%
    02:00 +10°C° 0.1 mm 7 mps 755 mmHg 84%
    03:00 +10°C° 0.1 mm 7 mps 754 mmHg 84%
    04:00 +10°C° 0.1 mm 6 mps 754 mmHg 84%
    05:00 +10°C° 0.1 mm 6 mps 754 mmHg 82%
    06:00 +11°C° 0.1 mm 7 mps 754 mmHg 81%
    07:00 +12°C° 0.1 mm 7 mps 755 mmHg 79%
    08:00 +14°C° 0.3 mm 7 mps 755 mmHg 75%
    09:00 +15°C° 0.3 mm 7 mps 755 mmHg 72%
    10:00 +16°C° 0.3 mm 7 mps 755 mmHg 68%
    11:00 +16°C° 0.6 mm 7 mps 755 mmHg 68%
    12:00 +17°C° 0.6 mm 7 mps 755 mmHg 68%
    13:00 +17°C° 0.6 mm 7 mps 755 mmHg 67%
    14:00 +17°C° 0.3 mm 6 mps 756 mmHg 65%
    15:00 +19°C° 0.3 mm 6 mps 756 mmHg 62%
    16:00 +19°C° 0.3 mm 6 mps 756 mmHg 60%
    17:00 +17°C° 0.1 mm 5 mps 756 mmHg 63%
    18:00 +17°C° 0.1 mm 5 mps 756 mmHg 67%
    19:00 +16°C° 0.1 mm 5 mps 756 mmHg 70%
    20:00 +15°C° 0 mm 5 mps 757 mmHg 76%
    21:00 +14°C° 0 mm 5 mps 757 mmHg 81%
    22:00 +13°C° 0 mm 5 mps 757 mmHg 86%
    23:00 +13°C° 0.1 mm 5 mps 758 mmHg 86%
    Show more